sat.trackr.live / text

‹ back to catalog

STARLINK-35926

NORAD 66642 · 2025-271AB

PAYLOAD ACTIVE UNKNOWN

§ Identity

Operator
Country
US
Launch date
2025-11-23
Launch site
AFWTR
Launch vehicle
Mass (kg)
RCS (m²)

Purposes: comms

External: N2YO · Heavens-Above · Gunter

§ Orbital elements

Epoch: 2026-05-24T07:47:53.467296Z

Period
94.11 min
Inclination
53.1578°
Eccentricity
0.0001119
Mean motion
15.30197967 rev/d
Perigee alt
474.5 km
Apogee alt
476.0 km
Semi-major
6,853.4 km
B*
3.4222e-4
RAAN
148.8289°
Arg perigee
93.7006°
Mean anomaly
266.4123°
Rev number
2,910

§ Raw data

STARLINK-359261 66642U 25271AB  26144.32492439  .00009789  00000+0  34222-3 0  99922 66642  53.1578 148.8289 0001119  93.7006 266.4123 15.30197967 29106

JSON: /api/v1/satellites/66642 · /tle

For live sub-satellite position, see the globe view (requires WebGL).

§ Visibility from observer

Set your observer location to see the next 7 days of passes ≥ 10°. The values pass through the URL so the page stays shareable.

No JS? Fill the form by hand. The geolocation button needs JavaScript.